This is the latest recevied weather packets stored in our database for station/object KC8BSD. If no packets are shown the sender has not sent any weather packets the latest 10 day(s).
| Time | Temp. | Humidity | Pressure | Rain* | Wind** | Luminosity | Snow |
|---|---|---|---|---|---|---|---|
| 1777465936 | 8.33° C | 93% | 1014.9 hPa | 0 mm | - | 43 W/m² | - |
| 1777465633 | 8.33° C | 93% | 1015.1 hPa | 0 mm | - | 41 W/m² | - |
| 1777465328 | 8.33° C | 93% | 1015.2 hPa | 0 mm | - | 47 W/m² | - |
| 1777465022 | 8.33° C | 93% | 1015.4 hPa | 0 mm | - | 40 W/m² | - |
| 1777464717 | 8.33° C | 93% | 1015.2 hPa | 0 mm | - | 28 W/m² | - |
| 1777464414 | 8.33° C | 93% | 1015.2 hPa | 0 mm | - | 30 W/m² | - |
| 1777464110 | 8.33° C | 93% | 1015.3 hPa | 0 mm | - | 33 W/m² | - |
| 1777463809 | 8.33° C | 93% | 1015.3 hPa | 0 mm | - | 39 W/m² | - |
| 1777463505 | 8.33° C | 93% | 1015.4 hPa | 0 mm | - | 32 W/m² | - |
| 1777463200 | 8.33° C | 93% | 1014.9 hPa | 1.27 mm | - | 36 W/m² | - |
| 1777462896 | 8.33° C | 92% | 1015.1 hPa | 1.27 mm | - | 25 W/m² | - |
| 1777462593 | 8.33° C | 92% | 1015.1 hPa | 1.78 mm | - | 16 W/m² | - |
| 1777462289 | 8.33° C | 92% | 1015.3 hPa | 3.05 mm | - | 10 W/m² | - |
| 1777461985 | 8.33° C | 92% | 1015.4 hPa | 4.83 mm | - | 6 W/m² | - |
| 1777461682 | 8.33° C | 91% | 1015.3 hPa | 6.6 mm | - | 3 W/m² | - |
| 1777461382 | 8.89° C | 91% | 1015.3 hPa | 4.32 mm | - | 0 W/m² | - |
| 1777461078 | 8.89° C | 90% | 1015.2 hPa | 4.32 mm | - | 0 W/m² | - |
| 1777460774 | 8.89° C | 89% | 1015.4 hPa | 6.1 mm | - | 0 W/m² | - |
| 1777460470 | 8.89° C | 87% | 1015.4 hPa | 6.1 mm | - | 0 W/m² | - |
| 1777460165 | 8.89° C | 86% | 1015.7 hPa | 3.05 mm | - | 0 W/m² | - |
| 1777459863 | 9.44° C | 86% | 1015.7 hPa | 1.78 mm | - | 0 W/m² | - |
| 1777459560 | 9.44° C | 85% | 1015.5 hPa | 0 mm | - | 0 W/m² | - |
| 1777459257 | 9.44° C | 82% | 1015.1 hPa | 0 mm | - | 0 W/m² | - |
| 1777458955 | 9.44° C | 81% | 1014.9 hPa | 0 mm | - | 0 W/m² | - |
| 1777458652 | 9.44° C | 80% | 1014.6 hPa | 0 mm | - | 0 W/m² | - |
* Rain latest hour (hover to see other rain measurements)
** Current wind speed in m/s (hover to see current wind gust speed)